Orbital Elements at Epoch 2459200.5 (2020-Dec-17.0) TDB
Reference: JPL 47 (heliocentric ecliptic J2000)
Element | Value | Uncertainty (1-sigma) | Units |
e | .1792097900364283 | 1.0556e-07 | |
a | .958795763020343 | 5.2028e-09 | au |
q | .7869701756416502 | 1.028e-07 | au |
i | 10.06294818478673 | 1.0722e-05 | deg |
node | 183.8100768119882 | 2.7731e-05 | deg |
peri | 242.8827378756703 | 2.9703e-05 | deg |
M | 338.5979377477342 | 5.5172e-05 | deg |
tp | 2459220.886407845243 (2021-Jan-06.38640785) | 5.2675e-05 | TDB |
period | 342.9158712735904 0.94 | 2.7912e-06 7.642e-09 | d yr |
n | 1.049820175027067 | 8.5451e-09 | deg/d |
Q | 1.130621350399036 | 6.1352e-09 | au |
|
| | Orbit Determination Parameters
Additional Information
|